| time (UTC) | temp C | wind direction | speed KPH | gust KPH | rain 1hr cm | rain 24hr cm | rain mn cm | humidity % | barometer mb |
| 20260504110326 | 8 | 359 | 3.2 | 8.0 | 0.00 | 0.00 | 0.00 | 53 | 1010.3 |
| 20260504100327 | 8 | 359 | 1.6 | 4.8 | 0.00 | 0.00 | 0.00 | 54 | 1010.2 |
| 20260504081319 | 7 | 359 | 3.2 | 6.4 | 0.00 | 0.00 | 0.00 | 52 | 1009.9 |
| 20260504080317 | 7 | 359 | 3.2 | 6.4 | 0.00 | 0.00 | 0.00 | 53 | 1009.9 |
| 20260504070345 | 8 | 359 | 0.0 | 3.2 | 0.00 | 0.00 | 0.00 | 52 | 1009.8 |
| 20260504050320 | 6 | 359 | 0.0 | 4.8 | 0.00 | 0.00 | 0.00 | 34 | 1009.5 |
| 20260504045336 | 6 | 359 | 0.0 | 0.0 | 0.00 | 0.00 | 0.00 | 22 | 1009.6 |
| 20260504044327 | 6 | 359 | 0.0 | 3.2 | 0.00 | 0.00 | 0.00 | 21 | 1009.4 |
| 20260504043320 | 6 | 359 | 0.0 | 0.0 | 0.00 | 0.00 | 0.00 | 9 | 1009.5 |
| 20260504042318 | 6 | 359 | 0.0 | 0.0 | 0.00 | 0.00 | 0.00 | 12 | 1009.5 |
| 20260504041318 | 6 | 359 | 0.0 | 0.0 | 0.00 | 0.00 | 0.00 | 33 | 1009.3 |
| 20260504040316 | 7 | 359 | 0.0 | 0.0 | 0.00 | 0.00 | 0.00 | 35 | 1009.2 |
| 20260504035314 | 7 | 359 | 0.0 | 0.0 | 0.00 | 0.00 | 0.00 | 44 | 1009.1 |
| 20260504034323 | 7 | 359 | 0.0 | 0.0 | 0.00 | 0.00 | 0.00 | 54 | 1009.1 |
| 20260504033320 | 7 | 359 | 0.0 | 0.0 | 0.00 | 0.00 | 0.00 | 56 | 1009.0 |
| 20260504032317 | 8 | 359 | 0.0 | 0.0 | 0.00 | 0.00 | 0.00 | 57 | 1009.1 |
| 20260504031315 | 8 | 359 | 0.0 | 3.2 | 0.00 | 0.00 | 0.00 | 56 | 1009.1 |
| 20260504030323 | 8 | 359 | 0.0 | 3.2 | 0.00 | 0.00 | 0.00 | 55 | 1009.1 |
| 20260504025319 | 8 | 359 | 0.0 | 3.2 | 0.00 | 0.00 | 0.00 | 55 | 1009.1 |
| 20260504024328 | 8 | 359 | 0.0 | 1.6 | 0.00 | 0.00 | 0.00 | 55 | 1009.1 |
| 20260504023339 | 8 | 359 | 0.0 | 0.0 | 0.00 | 0.00 | 0.00 | 54 | 1009.1 |
| 20260504022334 | 9 | 359 | 0.0 | 0.0 | 0.00 | 0.00 | 0.00 | 54 | 1009.2 |
| 20260504021324 | 9 | 233 | 0.0 | 0.0 | 0.00 | 0.00 | 0.00 | 52 | 1009.1 |
| 20260504020322 | 10 | 233 | 0.0 | 1.6 | 0.00 | 0.00 | 0.00 | 52 | 1009.1 |
| 20260504015319 | 10 | 253 | 0.0 | 0.0 | 0.00 | 0.00 | 0.00 | 51 | 1009.1 |
| 20260504014319 | 10 | 253 | 0.0 | 1.6 | 0.00 | 0.00 | 0.00 | 50 | 1009.2 |
| 20260504013327 | 11 | 359 | 0.0 | 0.0 | 0.00 | 0.00 | 0.00 | 48 | 1009.1 |
| 20260504012344 | 11 | 359 | 0.0 | 0.0 | 0.00 | 0.00 | 0.00 | 46 | 1009.0 |
| 20260504011319 | 11 | 359 | 0.0 | 0.0 | 0.00 | 0.00 | 0.00 | 45 | 1009.0 |
| 20260504010327 | 11 | 359 | 0.0 | 0.0 | 0.00 | 0.00 | 0.00 | 44 | 1008.9 |
| 20260504005344 | 11 | 359 | 0.0 | 4.8 | 0.00 | 0.00 | 0.00 | 44 | 1008.8 |
| 20260504004321 | 12 | 260 | 1.6 | 6.4 | 0.00 | 0.00 | 0.00 | 43 | 1008.7 |
| 20260504003319 | 12 | 268 | 1.6 | 4.8 | 0.00 | 0.00 | 0.00 | 42 | 1008.7 |
| 20260504002328 | 12 | 249 | 0.0 | 6.4 | 0.00 | 0.00 | 0.00 | 41 | 1008.5 |
| 20260504001323 | 12 | 359 | 1.6 | 6.4 | 0.00 | 0.00 | 0.00 | 40 | 1008.4 |
| 20260504000322 | 13 | 359 | 3.2 | 9.7 | 0.00 | 0.00 | 0.00 | 39 | 1008.2 |
| 20260503235320 | 13 | 359 | 4.8 | 8.0 | 0.00 | 0.00 | 0.00 | 38 | 1008.0 |
| 20260503234325 | 13 | 359 | 3.2 | 6.4 | 0.00 | 0.00 | 0.00 | 38 | 1008.0 |
| 20260503233322 | 13 | 359 | 3.2 | 14.5 | 0.00 | 0.00 | 0.00 | 38 | 1007.8 |
| 20260503232317 | 13 | 359 | 1.6 | 9.7 | 0.00 | 0.00 | 0.00 | 38 | 1007.8 |
| 20260503231325 | 13 | 359 | 4.8 | 9.7 | 0.00 | 0.00 | 0.00 | 37 | 1007.8 |
| 20260503230318 | 13 | 359 | 1.6 | 8.0 | 0.00 | 0.00 | 0.00 | 36 | 1007.7 |
| 20260503225323 | 13 | 280 | 1.6 | 9.7 | 0.00 | 0.00 | 0.00 | 35 | 1007.6 |
| 20260503224319 | 13 | 359 | 4.8 | 12.9 | 0.00 | 0.00 | 0.00 | 35 | 1007.5 |
| 20260503223318 | 13 | 359 | 4.8 | 9.7 | 0.00 | 0.00 | 0.00 | 33 | 1007.5 |
| 20260503222317 | 14 | 359 | 4.8 | 16.1 | 0.00 | 0.00 | 0.00 | 32 | 1007.4 |
| 20260503221314 | 15 | 359 | 8.0 | 19.3 | 0.00 | 0.00 | 0.00 | 32 | 1007.2 |
| 20260503220322 | 14 | 359 | 6.4 | 12.9 | 0.00 | 0.00 | 0.00 | 30 | 1007.2 |
| 20260503215319 | 14 | 359 | 4.8 | 17.7 | 0.00 | 0.00 | 0.00 | 30 | 1007.1 |
| 20260503214317 | 14 | 359 | 9.7 | 19.3 | 0.00 | 0.00 | 0.00 | 29 | 1007.2 |
| 20260503213315 | 14 | 359 | 4.8 | 14.5 | 0.00 | 0.00 | 0.00 | 29 | 1007.0 |
| 20260503212321 | 15 | 359 | 6.4 | 14.5 | 0.00 | 0.00 | 0.00 | 30 | 1007.0 |
| 20260503211318 | 14 | 359 | 12.9 | 29.0 | 0.00 | 0.00 | 0.00 | 28 | 1007.0 |
| 20260503210326 | 14 | 359 | 8.0 | 29.0 | 0.00 | 0.00 | 0.00 | 29 | 1007.0 |
| 20260503205320 | 14 | 359 | 6.4 | 20.9 | 0.00 | 0.00 | 0.00 | 30 | 1007.1 |
| 20260503204348 | 14 | 359 | 6.4 | 16.1 | 0.00 | 0.00 | 0.00 | 29 | 1007.1 |
| 20260503203323 | 14 | 359 | 8.0 | 17.7 | 0.00 | 0.00 | 0.00 | 31 | 1007.2 |
| 20260503202321 | 14 | 359 | 6.4 | 19.3 | 0.00 | 0.00 | 0.00 | 33 | 1007.0 |
| 20260503201318 | 13 | 359 | 4.8 | 20.9 | 0.00 | 0.00 | 0.00 | 33 | 1007.2 |
| 20260503200327 | 13 | 359 | 4.8 | 17.7 | 0.00 | 0.00 | 0.00 | 34 | 1007.3 |
| 20260503195343 | 13 | 359 | 9.7 | 25.7 | 0.00 | 0.00 | 0.00 | 33 | 1007.5 |
| 20260503194319 | 13 | 359 | 4.8 | 14.5 | 0.00 | 0.00 | 0.00 | 35 | 1007.6 |
| 20260503193327 | 13 | 359 | 8.0 | 25.7 | 0.00 | 0.00 | 0.00 | 35 | 1007.8 |
| 20260503192323 | 13 | 359 | 4.8 | 14.5 | 0.00 | 0.00 | 0.00 | 36 | 1007.8 |
| 20260503191319 | 12 | 359 | 6.4 | 16.1 | 0.00 | 0.00 | 0.00 | 37 | 1007.9 |
| 20260503190334 | 12 | 359 | 6.4 | 27.4 | 0.00 | 0.00 | 0.00 | 36 | 1008.0 |
| 20260503185325 | 12 | 359 | 9.7 | 20.9 | 0.00 | 0.00 | 0.00 | 36 | 1008.0 |
| 20260503184321 | 12 | 359 | 8.0 | 14.5 | 0.00 | 0.00 | 0.00 | 38 | 1008.1 |
| 20260503183320 | 11 | 359 | 6.4 | 22.5 | 0.00 | 0.00 | 0.00 | 40 | 1008.2 |
| 20260503182318 | 12 | 359 | 11.3 | 27.4 | 0.00 | 0.00 | 0.00 | 37 | 1008.3 |
| 20260503181327 | 12 | 359 | 8.0 | 20.9 | 0.00 | 0.00 | 0.00 | 39 | 1008.5 |
| 20260503180322 | 11 | 359 | 6.4 | 16.1 | 0.00 | 0.00 | 0.00 | 41 | 1008.5 |
| 20260503175337 | 11 | 359 | 6.4 | 16.1 | 0.00 | 0.00 | 0.00 | 40 | 1008.6 |
| 20260503174322 | 11 | 359 | 9.7 | 16.1 | 0.00 | 0.00 | 0.00 | 40 | 1008.8 |
| 20260503173319 | 11 | 359 | 8.0 | 20.9 | 0.00 | 0.00 | 0.00 | 42 | 1008.8 |
| 20260503172315 | 11 | 359 | 8.0 | 19.3 | 0.00 | 0.00 | 0.00 | 42 | 1008.7 |
| 20260503171323 | 10 | 359 | 6.4 | 16.1 | 0.00 | 0.00 | 0.00 | 44 | 1009.0 |
| 20260503170321 | 10 | 359 | 3.2 | 16.1 | 0.00 | 0.00 | 0.00 | 45 | 1008.9 |
| 20260503150319 | 10 | 359 | 9.7 | 16.1 | 0.00 | 0.00 | 0.00 | 36 | 1009.1 |
| 20260503131329 | 7 | 359 | 8.0 | 22.5 | 0.00 | 0.03 | 0.00 | 51 | 1009.5 |
| 20260503130345 | 7 | 359 | 4.8 | 22.5 | 0.00 | 0.03 | 0.00 | 51 | 1009.4 |